{"data":{"norad_id":53293,"epoch":"2026-05-25T03:02:30.254784Z","epoch_age_seconds":59952,"freshness":"FRESH","line1":"1 53293U 22086BD  26145.12673906  .00003026  00000+0  20798-3 0  9991","line2":"2 53293  53.2151 190.9707 0000426 179.9385 180.1607 15.08859778212868","mean_motion":15.08859778,"eccentricity":4.26e-5,"inclination_deg":53.2151,"raan_deg":190.9707,"arg_perigee_deg":179.9385,"mean_anomaly_deg":180.1607,"bstar":0.00020798,"rev_number":21286,"period_min":95.436303690773,"perigee_km":539.38823706148,"apogee_km":539.97763532005,"semimajor_km":6917.8199361908,"source":"CELESTRAK","updated_at":"2026-05-25T13:38:17.392462Z"}}